GW6509 Weather Reports


time (UTC)temp
C
wind
direction
speed
KPH
gust
KPH
rain 1hr
cm
rain 24hr
cm
rain mn
cm
humidity
%
barometer
mb
20260505071247 12 317 1.6 1.6 0.30 0.33 0.33 76 1009.3
20260505070745 12 308 1.6 3.2 0.13 0.30 0.30 72 1008.5
20260505070241 12 10 0.0 1.6 0.00 0.28 0.28 69 1007.5
20260505065737 13 327 1.6 1.6 0.18 0.28 0.28 68 1007.9
20260505065234 13 332 0.0 1.6 0.18 0.28 0.28 65 1007.6
20260505064731 13 345 0.0 0.0 0.00 0.25 0.25 69 1007.5
20260505064229 13 325 0.0 1.6 0.00 0.25 0.25 67 1007.5
20260505063726 14 247 6.4 12.9 0.00 0.25 0.25 67 1007.1
20260505063222 13 14 1.6 1.6 0.00 0.25 0.25 71 1007.1
20260505062719 13 322 0.0 0.0 0.30 0.25 0.25 83 1006.9
20260505062217 14 327 0.0 0.0 0.43 0.25 0.25 82 1007.2
20260505061713 14 329 0.0 0.0 0.30 0.20 0.20 79 1006.4
20260505061211 14 354 0.0 0.0 0.18 0.18 0.18 81 1006.7
20260505060708 14 352 0.0 0.0 0.18 0.15 0.15 78 1006.6
20260505060205 15 309 0.0 1.6 0.48 0.15 0.15 77 1006.2
20260505055700 15 287 1.6 1.6 0.61 0.13 0.13 72 1006.2
20260505055157 16 344 1.6 3.2 0.43 0.08 0.08 67 1005.6
20260505054654 17 17 0.0 3.2 0.30 0.05 0.05 62 1005.5
20260505054152 17 311 3.2 4.8 0.00 0.00 0.00 55 1005.0
20260505053650 18 25 0.0 1.6 0.00 0.00 0.00 53 1005.1
20260505053146 18 15 1.6 3.2 0.00 0.00 0.00 51 1005.2
20260505052643 18 359 1.6 3.2 0.00 0.00 0.00 55 1005.4
20260505052140 18 354 4.8 9.7 0.00 0.00 0.00 54 1005.2
20260505051637 19 35 1.6 3.2 0.00 0.00 0.00 51 1005.4
20260505051136 20 348 3.2 6.4 0.00 0.00 0.00 44 1004.8
20260505050633 21 250 4.8 6.4 0.00 0.00 0.00 39 1004.7
20260505050131 21 11 4.8 6.4 0.00 0.00 0.00 43 1004.6
20260505041601 21 282 1.6 1.6 0.00 0.00 0.00 66 1003.6
20260505041058 21 11 0.0 1.6 0.00 0.00 0.00 66 1003.6
20260505040555 21 327 0.0 0.0 0.00 0.00 0.00 66 1003.6
20260505040052 21 172 3.2 4.8 0.00 0.00 0.00 66 1003.8
20260505035548 21 221 0.0 1.6 0.00 0.00 0.00 66 1003.8
20260505035045 21 11 0.0 1.6 0.00 0.00 0.00 66 1003.8
20260505034541 21 75 1.6 1.6 0.00 0.00 0.00 66 1003.9
20260505034038 21 340 0.0 0.0 0.00 0.00 0.00 66 1003.6
20260505033536 21 351 0.0 0.0 0.00 0.00 0.00 66 1003.9
20260505033034 21 23 1.6 3.2 0.00 0.00 0.00 66 1003.9
20260505032531 22 333 0.0 0.0 0.00 0.00 0.00 65 1003.9
20260505032027 22 284 3.2 3.2 0.00 0.00 0.00 64 1003.9
20260505031525 22 315 1.6 1.6 0.00 0.00 0.00 63 1003.7
20260505031021 22 354 0.0 0.0 0.00 0.00 0.00 63 1003.8
20260505030518 22 167 0.0 0.0 0.00 0.00 0.00 62 1003.6
20260505030014 22 192 1.6 3.2 0.00 0.00 0.00 62 1003.5
20260505025510 22 334 0.0 0.0 0.00 0.00 0.00 61 1003.5
20260505025009 22 18 0.0 1.6 0.00 0.00 0.00 61 1003.6
20260505024506 22 355 0.0 0.0 0.00 0.00 0.00 61 1003.6
20260505024003 22 331 0.0 0.0 0.00 0.00 0.00 60 1003.1
20260505023500 22 328 0.0 1.6 0.00 0.00 0.00 60 1003.3
20260505022957 22 345 0.0 0.0 0.00 0.00 0.00 60 1003.1
20260505022455 21 345 0.0 1.6 0.00 0.00 0.00 61 1003.0
20260505021952 21 352 0.0 0.0 0.00 0.00 0.00 60 1002.8
20260505021448 21 352 0.0 0.0 0.00 0.00 0.00 59 1002.8
20260505020944 21 352 0.0 0.0 0.00 0.00 0.00 58 1002.8
20260505020439 21 352 0.0 0.0 0.00 0.00 0.00 57 1002.7
20260505015936 21 352 0.0 0.0 0.00 0.00 0.00 56 1002.7
20260505015433 22 352 0.0 0.0 0.00 0.00 0.00 56 1002.8
20260505014931 22 351 0.0 0.0 0.00 0.00 0.00 55 1002.8
20260505014428 22 351 0.0 0.0 0.00 0.00 0.00 54 1002.6
20260505013925 22 351 0.0 0.0 0.00 0.00 0.00 54 1002.6
20260505013421 22 351 0.0 0.0 0.00 0.00 0.00 54 1002.4
20260505012919 22 351 0.0 0.0 0.00 0.00 0.00 53 1002.2
20260505012417 22 351 0.0 0.0 0.00 0.00 0.00 53 1002.4
20260505011913 23 352 0.0 0.0 0.00 0.00 0.00 52 1002.2
20260505011410 23 352 0.0 0.0 0.00 0.00 0.00 51 1002.3
20260505010906 23 352 0.0 0.0 0.00 0.00 0.00 51 1002.0
20260505010402 23 352 0.0 0.0 0.00 0.00 0.00 50 1002.0
20260505005858 24 352 0.0 0.0 0.00 0.00 0.00 49 1001.8
20260505005355 24 352 0.0 0.0 0.00 0.00 0.00 48 1001.8
20260505004853 25 352 0.0 0.0 0.00 0.00 0.00 47 1001.6
20260505004349 25 352 0.0 0.0 0.00 0.00 0.00 45 1001.8
20260505003846 25 353 0.0 0.0 0.00 0.00 0.00 45 1001.6
20260505003344 26 340 0.0 0.0 0.00 0.00 0.00 45 1001.6
20260505002839 26 343 0.0 0.0 0.00 0.00 0.00 45 1001.8
20260505002336 26 343 0.0 0.0 0.00 0.00 0.00 45 1001.6
20260505001835 26 344 0.0 0.0 0.00 0.00 0.00 45 1001.7
20260505001332 26 330 0.0 0.0 0.00 0.00 0.00 45 1001.7
20260505000829 26 330 0.0 0.0 0.00 0.00 0.00 43 1001.6
20260505000327 26 330 0.0 0.0 0.00 0.00 0.00 44 1001.6
20260504235823 26 330 0.0 0.0 0.00 0.00 0.00 43 1001.6
20260504235320 26 329 1.6 1.6 0.00 0.00 0.00 43 1001.8
20260504234817 26 340 0.0 0.0 0.00 0.00 0.00 43 1001.6
20260504234314 26 328 0.0 0.0 0.00 0.00 0.00 43 1001.9
20260504233811 26 333 0.0 0.0 0.00 0.00 0.00 43 1001.7
20260504233306 27 329 1.6 1.6 0.00 0.00 0.00 41 1001.5
20260504232803 27 337 0.0 0.0 0.00 0.00 0.00 41 1001.6
20260504232301 27 327 0.0 1.6 0.00 0.00 0.00 41 1001.7
20260504231757 27 142 1.6 3.2 0.00 0.00 0.00 42 1001.8
20260504231254 27 321 1.6 3.2 0.00 0.00 0.00 40 1001.9
20260504230750 27 353 1.6 1.6 0.00 0.00 0.00 41 1001.8
20260504230248 27 51 0.0 1.6 0.00 0.00 0.00 40 1001.8
20260504225747 27 334 0.0 1.6 0.00 0.00 0.00 41 1001.6
20260504225242 27 325 1.6 1.6 0.00 0.00 0.00 41 1001.4
20260504224740 27 232 3.2 4.8 0.00 0.00 0.00 41 1001.6
20260504224237 27 352 1.6 1.6 0.00 0.00 0.00 40 1001.8
20260504223733 27 257 3.2 4.8 0.00 0.00 0.00 40 1001.8
20260504223229 27 340 0.0 0.0 0.00 0.00 0.00 39 1001.7
20260504222726 28 305 1.6 3.2 0.00 0.00 0.00 38 1001.6
20260504222223 28 351 0.0 0.0 0.00 0.00 0.00 37 1001.6
20260504221720 28 336 1.6 3.2 0.00 0.00 0.00 38 1001.9
20260504221217 28 0 0.0 1.6 0.00 0.00 0.00 38 1002.0
20260504220714 28 340 1.6 3.2 0.00 0.00 0.00 40 1001.9
20260504220211 27 324 1.6 3.2 0.00 0.00 0.00 40 1001.9
20260504215708 27 331 0.0 0.0 0.00 0.00 0.00 39 1002.1
20260504215205 27 289 1.6 3.2 0.00 0.00 0.00 39 1001.9
20260504214700 27 8 0.0 1.6 0.00 0.00 0.00 39 1002.0
20260504214157 27 316 3.2 3.2 0.00 0.00 0.00 38 1002.3
20260504213654 27 326 1.6 3.2 0.00 0.00 0.00 38 1002.1
20260504213151 28 346 1.6 3.2 0.00 0.00 0.00 38 1002.2
20260504212647 28 328 1.6 1.6 0.00 0.00 0.00 36 1002.2
20260504212144 27 279 0.0 1.6 0.00 0.00 0.00 38 1002.0
20260504211641 27 345 0.0 0.0 0.00 0.00 0.00 40 1002.2
20260504211137 27 133 3.2 3.2 0.00 0.00 0.00 40 1002.4
20260504210636 27 40 1.6 3.2 0.00 0.00 0.00 39 1002.3
20260504210131 27 161 3.2 3.2 0.00 0.00 0.00 38 1002.3
20260504205629 27 301 1.6 3.2 0.00 0.00 0.00 39 1002.4
20260504205126 27 340 0.0 1.6 0.00 0.00 0.00 38 1002.5
20260504204625 28 311 3.2 4.8 0.00 0.00 0.00 39 1002.3
20260504204123 28 25 1.6 3.2 0.00 0.00 0.00 37 1002.4
20260504203622 28 277 3.2 3.2 0.00 0.00 0.00 38 1002.6
20260504203120 28 36 1.6 3.2 0.00 0.00 0.00 39 1002.5
20260504202619 28 264 3.2 4.8 0.00 0.00 0.00 38 1002.6
20260504202117 29 290 1.6 3.2 0.00 0.00 0.00 36 1002.4
20260504201613 30 334 1.6 3.2 0.00 0.00 0.00 37 1002.5
20260504201111 29 221 3.2 3.2 0.00 0.00 0.00 37 1002.3
20260504200608 29 175 3.2 6.4 0.00 0.00 0.00 36 1002.8
20260504200104 29 299 3.2 4.8 0.00 0.00 0.00 36 1002.6
20260504195600 29 170 4.8 4.8 0.00 0.00 0.00 37 1002.7
20260504195057 28 181 3.2 4.8 0.00 0.00 0.00 37 1002.5
20260504194554 28 264 1.6 1.6 0.00 0.00 0.00 38 1002.5
20260504194049 29 174 1.6 3.2 0.00 0.00 0.00 37 1002.6
20260504193546 29 161 3.2 4.8 0.00 0.00 0.00 38 1002.6
20260504193045 29 306 1.6 1.6 0.00 0.00 0.00 37 1002.8
20260504192543 29 277 3.2 3.2 0.00 0.00 0.00 38 1002.5
20260504192040 29 47 0.0 1.6 0.00 0.00 0.00 39 1002.6
20260504191538 29 340 4.8 6.4 0.00 0.00 0.00 37 1002.5
20260504191034 28 343 1.6 3.2 0.00 0.00 0.00 36 1002.6
20260504190531 28 356 0.0 0.0 0.00 0.00 0.00 37 1003.0
20260504190026 28 333 0.0 1.6 0.00 0.00 0.00 37 1002.9
20260504185524 28 115 3.2 3.2 0.00 0.00 0.00 38 1002.8
20260504185020 28 240 3.2 3.2 0.00 0.00 0.00 37 1002.8
20260504184515 28 313 1.6 1.6 0.00 0.00 0.00 39 1002.8
20260504184011 28 26 1.6 1.6 0.00 0.00 0.00 40 1002.9
20260504183509 28 311 1.6 1.6 0.00 0.00 0.00 37 1003.1
20260504183007 28 285 3.2 3.2 0.00 0.00 0.00 37 1003.1
20260504182503 27 325 0.0 1.6 0.00 0.00 0.00 37 1003.1
20260504182000 27 151 3.2 3.2 0.00 0.00 0.00 38 1003.0
20260504181457 27 280 1.6 3.2 0.00 0.00 0.00 38 1003.4
20260504180956 27 187 3.2 3.2 0.00 0.00 0.00 38 1003.3
20260504180455 27 165 3.2 4.8 0.00 0.00 0.00 38 1003.3
20260504175953 27 341 1.6 4.8 0.00 0.00 0.00 38 1003.5
20260504175449 27 301 4.8 4.8 0.00 0.00 0.00 37 1003.5
20260504174947 27 31 1.6 1.6 0.00 0.00 0.00 40 1003.6
20260504174444 27 249 3.2 3.2 0.00 0.00 0.00 38 1003.4
20260504173942 27 331 0.0 1.6 0.00 0.00 0.00 38 1003.4
20260504173437 26 312 1.6 3.2 0.00 0.00 0.00 40 1003.5
20260504172936 26 65 3.2 6.4 0.00 0.00 0.00 37 1003.6
20260504172431 26 76 1.6 1.6 0.00 0.00 0.00 38 1003.7
20260504171928 26 345 0.0 1.6 0.00 0.00 0.00 39 1003.6
20260504171425 26 291 4.8 4.8 0.00 0.00 0.00 39 1003.7
20260504170922 26 42 1.6 1.6 0.00 0.00 0.00 39 1003.8
20260504170418 26 324 3.2 3.2 0.00 0.00 0.00 39 1003.8
20260504160337 25 352 1.6 3.2 0.00 0.00 0.00 39 1003.7
20260504150802 22 180 1.6 3.2 0.00 0.00 0.00 46 1004.1
20260504150259 22 264 1.6 1.6 0.00 0.00 0.00 45 1003.9
20260504141229 19 346 0.0 1.6 0.00 0.00 0.00 52 1004.2
20260504140725 20 316 1.6 1.6 0.00 0.00 0.00 52 1004.3
20260504140220 20 269 3.2 4.8 0.00 0.00 0.00 51 1004.0
20260504130649 18 333 0.0 0.0 0.00 0.00 0.00 52 1003.9
20260504130145 18 321 1.6 1.6 0.00 0.00 0.00 52 1003.9
20260504120110 17 74 0.0 1.6 0.00 0.00 0.00 54 1004.1
20260504110537 17 341 0.0 0.0 0.00 0.00 0.00 52 1004.5
20260504100459 18 335 1.6 1.6 0.00 0.00 0.00 48 1004.4
20260504081852 18 301 0.0 1.6 0.00 0.00 0.00 48 1005.1
20260504081349 18 353 0.0 1.6 0.00 0.00 0.00 48 1005.1
20260504080844 18 46 1.6 1.6 0.00 0.00 0.00 48 1005.4
20260504080342 18 31 4.8 6.4 0.00 0.00 0.00 48 1005.3